Location: *
(2.5500°S, 65.9667°W)
Time: 13:12:28
(UTC+00:00)

H-2A R/B - Pass Details

Date: 31 May 2022
Orbit: 734 x 836 km, 98.2° (Epoch: 30 June)

Event Time Altitude Azimuth Distance (km) Brightness Sun altitude
Rises 23:29:00 0° 205° (SSW) 3,171 5.2 -16.6°
Reaches altitude 10° 23:32:49 10° 235° (SW) 2,257 4.9 -17.4°
Maximum altitude 23:34:37 12° 257° (WSW) 2,131 5.1 -17.8°
Drops below altitude 10° 23:36:25 10° 279° (W) 2,270 5.6 -18.3°
Sets 23:40:19 0° 309° (NW) 3,212 6.6 -19.2°
